DELTA 1 DEB, 7177

Orbit data source: Space-Track

DELTA 1 DEB, 7177 is space debris in SSO originally from a launch on Tue, 06 Nov 1973 UTC launched from the Air Force Western Test Range (AFWTR). Debris objects in space refer to the collection of defunct objects orbiting the Earth. Examples of debris include non-operational satellites, rocket bodies, and fragments generated from explosions, collisions, or faulty payload assembly.

Loading next visibility...
Identifier
7177, 1973-086EP
Orbit
SSO
Country
Flag of USUS
Related business
Manufacturer
Unknown
Mission
Spacecraft
Bus & Motor
Unknown
Mass
Unknown
Launch date (UTC)
1973-11-06 (53 years ago)
Launch vehicle
Unknown
Launch site
Air Force Western Test Range (AFWTR)
Object type
Payload
Rocket body
Debris
Shape & HBR
Unknown shape, 0.1 m
Radar Cross Section
Medium (>0.1 m² and <1 m²)

Expand to show TLE details & history
Last TLE update: 21 hours ago

TLE from 21 hours ago
0 DELTA 1 DEB
1 07177U 73086EP  26206.53202382  .00000798  00000-0  19226-2 0  9993
2 07177 102.0390 225.0326 0236779 252.1654 264.7342 13.17089559510033
Epoch: 2026-07-25T12:46Z
TLE epoch observation values (Epoch: 2026-07-25T12:46:06.858Z)
Latitude
25.21694°
Longitude
-84.004°
Altitude
1,219.331 km
Speed
7.237 km/s
True Right ascension
03h 23m 04s
True Declination
25° 05' 34"
Sunlit
Object was in daylight at epoch
Visualization orbit readout
Latitude
Unknown
Longitude
Unknown
Altitude
Unknown
Speed
Unknown
Apparent Right ascension
Unknown
Apparent Declination
Unknown
Sunlit
N/A
Visualization observer readout
Local Sidereal Time
23:18:35
Azimuth
Unknown
Elevation
Unknown
Doppler factor
Unknown
Orbital elements
Apogee altitude
1,372.609 km
Perigee altitude
1,014.056 km
Semi-major axis
7,571.469 km
Eccentricity
0.02368
Inclination
102.039°
RAAN
225.0326°
Arg. of periapsis
252.1654°
True anomaly
262.04068°
Mean anomaly
264.7342°
Eccentric anomaly
263.38658°
Mean motion
3.29437 °/min
Orbital period
109.28 mins
BSTAR
0.0019226
Loading maneuver chart data...
Computing Atmospheric mass density...
Loading historical data...
Loading historical data...
Loading historical data...
Loading historical data...
Loading historical data...
Loading historical data...
Loading historical data...

Documentation

Showing up to 5 results
|